Weather Roundup
Issued by NWS Springfield, MO

Home | Current Version | Previous Version | Text Only | Print | Product List | Glossary On
Versions: 1 2 3 4 5 6 7 8 9 10 11 12 13 14 15 16 17 18 19 20 21 22 23 24 25 26 27 28 29 30 31 32 33 34 35 36 37 38 39 40 41 42 43 44 45 46 47 48 49 50
000
NZUS99 KSGF 261057
HRRSGF

HOURLY WEATHER
NATIONAL WEATHER SERVICE SPRINGFIELD MO
500 AM CST SUN FEB 26 2017

......SGF CWA......

CITY           SKY/WX    TMP DP  RH WIND       PRES   REMARKS
SPRINGFIELD    CLOUDY    33  16  49 S9        30.04R WCI  25
JOPLIN         CLOUDY    36  19  50 S6        30.03S WCI  31
WEST PLAINS    CLEAR     30  11  45 SE5       30.09F WCI  25
ROLLA          CLEAR     28  12  51 S9        30.04F WCI  19

......SURROUNDING SGF CWA......

CITY           SKY/WX    TMP DP  RH WIND       PRES   REMARKS
CHANUTE        CLOUDY    37  18  46 S6        30.00S WCI  32
PARSONS        CLOUDY    38  19  46 VRB5      30.00F WCI  34
COFFEYVILLE    CLOUDY    36  22  56 SE6       29.99F WCI  31
EMPORIA        LGT SNOW  34  30  85 SW8       30.00R FOG     WCI  27
HARRISON AR    CLEAR     27  19  72 SE5       30.05F WCI  22

......KANSAS AND MISSOURI......

CITY           SKY/WX    TMP DP  RH WIND       PRES   REMARKS
KANSAS CTY INT CLOUDY    35  15  44 SW12      29.99R WCI  27
SEDALIA        CLOUDY    36  14  40 S12       30.04R WCI  28
ST JOSEPH      CLOUDY    31  18  58 S5        29.98S WCI  26
ST LOUIS       CLEAR     33  14  45 S12       30.09F WCI  24
WICHITA        PTCLDY    34  21  59 SE8       29.94F WCI  27
TOPEKA         CLOUDY    39  18  42 SW8       29.99R WCI  33
OLATHE         CLOUDY    33  16  49 S8        29.99R WCI  26

......TENNESSEE......

CITY           SKY/WX    TMP DP  RH WIND       PRES   REMARKS
MEMPHIS        NOT AVBL
NASHVILLE      CLEAR     28  22  78 S3        30.22R

......ARKANSAS.......

CITY           SKY/WX    TMP DP  RH WIND       PRES   REMARKS
FAYETTEVILLE   CLEAR     24  22  91 CALM      30.03F
FT SMITH       PTCLDY    33  27  78 E5        30.06S WCI  29
LITTLE ROCK    PTCLDY    35  32  88 CALM      30.13S

......OKLAHOMA.......

CITY           SKY/WX    TMP DP  RH WIND       PRES   REMARKS
TULSA          CLOUDY    39  20  46 S12       29.97F WCI  32
PONCA CITY     CLOUDY    38  19  46 S6        29.96R WCI  33
MCALESTER      MOCLDY    35  22  58 SE5       30.00F WCI  31
OKLAHOMA CITY  CLOUDY    37  23  56 S14       29.91F WCI  28

......IOWA............

CITY           SKY/WX    TMP DP  RH WIND       PRES   REMARKS
DES MOINES     NOT AVBL
QUAD CITIES    CLOUDY    31  16  54 S12       29.96F WCI  22

......ILLINOIS........

CITY           SKY/WX    TMP DP  RH WIND       PRES   REMARKS
QUINCY         NOT AVBL
CHICAGO        CLOUDY    25  18  74 S8        30.01S WCI  16



USA.gov is the U.S. government's official web portal to all federal, state and local government web resources and services.